This is the latest recevied weather packets stored in our database for station/object DC1MAK-13. If no packets are shown the sender has not sent any weather packets the latest 10 day(s).
| Time | Temp. | Humidity | Pressure | Rain* | Wind** | Luminosity | Snow |
|---|---|---|---|---|---|---|---|
| 1788003034 | 22.78° C | 56% | 987.6 hPa | - | - | - | - |
| 1788002736 | 23.33° C | 56% | 987.6 hPa | - | - | - | - |
| 1788002433 | 22.78° C | 58% | 987.7 hPa | - | - | - | - |
| 1788002427 | 22.78° C | 58% | 987.7 hPa | - | - | - | - |
| 1788001827 | 23.33° C | 55% | 987.7 hPa | - | - | - | - |
| 1788001820 | 23.33° C | 55% | 987.7 hPa | - | - | - | - |
| 1788001527 | 22.78° C | 54% | 987.8 hPa | - | - | - | - |
| 1788001219 | 22.78° C | 54% | 987.7 hPa | - | - | - | - |
| 1788000915 | 22.22° C | 56% | 987.8 hPa | - | - | - | - |
| 1788000612 | 22.78° C | 57% | 987.7 hPa | - | - | - | - |
| 1788000606 | 22.78° C | 57% | 987.7 hPa | - | - | - | - |
| 1788000303 | 22.78° C | 59% | 987.9 hPa | - | - | - | - |
| 1788000007 | 22.22° C | 60% | 987.9 hPa | - | - | - | - |
| 1787999999 | 22.22° C | 60% | 987.9 hPa | - | - | - | - |
| 1787999707 | 22.22° C | 60% | 987.9 hPa | - | - | - | - |
| 1787999696 | 22.22° C | 60% | 987.9 hPa | - | - | - | - |
| 1787999398 | 22.78° C | 62% | 988 hPa | - | - | - | - |
| 1787999392 | 22.78° C | 62% | 988 hPa | - | - | - | - |
| 1787999094 | 21.67° C | 62% | 987.9 hPa | - | - | - | - |
| 1787999089 | 21.67° C | 62% | 987.9 hPa | - | - | - | - |
| 1787998791 | 21.67° C | 66% | 988 hPa | - | - | - | - |
| 1787998187 | 20.56° C | 69% | 988 hPa | - | - | - | - |
| 1787997881 | 20.56° C | 69% | 988.1 hPa | - | - | - | - |
| 1787997577 | 20.56° C | 69% | 988.1 hPa | - | - | - | - |
| 1787997274 | 21.11° C | 66% | 988.2 hPa | - | - | - | - |
* Rain since midnight (hover to see other rain measurements)
** Current wind speed in m/s (hover to see current wind gust speed)